Terminal Aerodrome Forecast
Issued by NWS

Home | Current Version | Previous Version | Graphics & Text | Print | Product List | Glossary On
Versions: 1 2 3 4 5 6 7 8 9 10 11 12 13 14 15 16 17 18 19 20 21 22 23 24 25
674
FTUS43 KLOT 130520
TAFMDW
TAF
KMDW 130520Z 1306/1406 32015G25KT P6SM SKC
     FM130900 31012KT P6SM SKC
     FM132300 VRB03KT P6SM SKC=

USA.gov is the U.S. government's official web portal to all federal, state and local government web resources and services.